Flag for Germany Weather past 2 weeks in Greifswald, Mecklenburg-Western Pomerania, Germany

Now
59 °F

Overcast.


Feels Like: 58 °F
Forecast: 51 / 71 °F
Wind: 7 mph from West

Location: Greifswald

Current Time: Jul 31, 2015 at 1:50:32 PM

Latest Report: Jul 31, 2015 at 1:00 PM


Visibility: 28 mi

Pressure: 30.03 "Hg

Humidity: 62%

Dew point: 46 °F

Location of GreifswaldLocation

Historic Weather in Greifswald — Graph

°F

Greifswald temperature yesterday

Maximum temperature yesterday: 61 °F (at 4:00 PM)
Minimum temperature yesterday: 53 °F (at 2:00 AM)
Average temperature yesterday: 57 °F

Past Weeks' High & Low Weather Summary

 TemperatureHumidityPressure
High80 °F (Jul 22, 4:00 PM)97% (Jul 18, 3:00 AM)30.11 "Hg (Jul 18, 3:00 AM)
Low51 °F (Jul 24, 5:00 AM)40% (Jul 26, 3:00 PM)29.44 "Hg (Jul 25, 6:00 PM)
Average62 °F74%29.81 "Hg
* Reported Jul 16 1:00 PM — Jul 31 1:00 PM, Greifswald, Weather by CustomWeather, © 2015

Note: Actual official high and low records may vary slightly from our data, if they occured in-between our weather recording intervals... More about our weather records

Advertising

Greifswald weather history for previous 24 hours

 ConditionsComfort  
Time TempWeatherWind HumidityBarometerVisibility
1:00 PM
Fri, Jul 31
59 °FOvercast.7 mph62%30.03 "Hg28 mi
12:00 PM57 °FOvercast.6 mph71%30.02 "Hg25 mi
10:00 AM57 °FOvercast.6 mph78%29.99 "Hg22 mi
9:00 AM56 °FOvercast.6 mph83%29.98 "Hg19 mi
8:00 AM53 °FOvercast.5 mph92%29.96 "Hg16 mi
7:00 AM53 °FLow clouds.7 mph92%29.94 "Hg17 mi
4:00 AM54 °FSprinkles. Low clouds.6 mph94%29.89 "Hg2 mi
3:00 AM55 °FOvercast.6 mph89%29.88 "Hg19 mi
2:00 AM54 °FOvercast.7 mph91%29.87 "Hg11 mi
1:00 AM55 °FOvercast.7 mph86%29.86 "Hg19 mi
10:00 PM
Thu, Jul 30
56 °FOvercast.8 mph83%29.83 "Hg28 mi
9:00 PM56 °FOvercast.7 mph85%29.82 "Hg28 mi
8:00 PM58 °FOvercast.8 mph78%29.80 "Hg28 mi
7:00 PM59 °FOvercast.8 mph72%29.79 "Hg37 mi
6:00 PM60 °FOvercast.9 mph70%29.78 "Hg40 mi
4:00 PM61 °FOvercast.9 mph64%29.75 "Hg28 mi
3:00 PM60 °FOvercast.8 mph74%29.74 "Hg25 mi
2:00 PM59 °FLow clouds.9 mph79%29.72 "Hg19 mi
1:00 PM57 °FLight rain. Overcast.8 mph88%29.70 "Hg2 mi
Weather by CustomWeather, © 2015

See weather overviewHow to use our weather pages